www.pogodaiklimat.ru

Погода и климат >> Архив погоды >> Австрия >> Лилиенфельд


ПОГОДА в Лилиенфельде

  • Прогноз погоды в Лилиенфельде
  • Монитор погоды в Лилиенфельде

АРХИВ ПОГОДЫ в Лилиенфельде

Время (UTC), дата Ветер
(напр.,м/с)
 
Видим.   Явления Облачность Т
(С)
Тd
(С)
f
(%)
Тe
(С)
Тes
(С)
Комфортность P
(гПа)
Po
(гПа)
Тmin
(С)
Tmax
(С)
R
(мм)
R24
(мм)
S
(см)
01 9.06 ЮЗ 2 н/о н/о +15.6 +7.9 60 +16 +16 1025.3 945.2
02 9.06 ЮЗ 2 н/о н/о +15.1 +8.7 66 +15 +15 1025.4 945.1
03 9.06 ЮЗ 1 н/о н/о +15.3 +8.4 63 +16 +16 1025.0 944.8
04 9.06 ЮЗ 1 н/о н/о +14.5 +8.8 69 +15 +15 1025.1 944.7
05 9.06 СВ 1 н/о н/о +15.1 +7.9 62 +16 +16 1024.9 944.7
06 9.06 СВ 1 н/о н/о +17.3 +9.0 58 +18 +18 1024.7 945.1 +14.4 +17.5
07 9.06 СВ 2 н/о н/о +18.6 +9.2 54 +20 +20 1023.9 944.7
08 9.06 СВ 3 н/о н/о +19.5 +8.3 48 +21 +21 комфорт 1023.0 944.1
09 9.06 С 3 н/о н/о +21.1 +8.1 43 +22 +22 комфорт 1021.9 943.5
10 9.06 С 3 н/о н/о +22.2 +8.7 42 +24 +24 комфорт 1021.4 943.3
11 9.06 С 4 н/о н/о +23.0 +10.9 46 +25 +25 комфорт 1020.8 943.0
12 9.06 С 2 н/о н/о +23.4 +9.4 41 +25 +25 комфорт 1020.1 942.4
13 9.06 С 2 н/о н/о +24.1 +9.8 40 +25 +25 комфорт 1019.4 941.9
14 9.06 С 1 н/о н/о +24.5 +11.5 44 +26 +26 жарко 1018.5 941.3
15 9.06 С 3 н/о н/о +23.9 +12.0 47 +26 +26 жарко 1018.0 940.7
16 9.06 С 1 н/о н/о +24.2 +11.7 46 +26 +26 жарко 1017.4 940.2
17 9.06 СВ 1 н/о н/о +23.6 +11.8 47 +25 +25 комфорт 1017.3 939.9
18 9.06 ЮВ 2 н/о н/о +22.8 +11.4 49 +25 +25 комфорт 1017.1 939.5 +16.5 +24.8
19 9.06 ЮВ 1 н/о н/о +21.8 +11.3 51 +24 +24 комфорт 1017.6 939.7
20 9.06 ЮВ 1 н/о н/о +21.0 +11.2 53 +24 +24 комфорт 1017.7 939.6
21 9.06 ЮЗ 2 н/о н/о +19.9 +11.4 58 +22 +22 комфорт 1017.9 939.5
22 9.06 ЮЗ 2 н/о н/о +19.2 +11.2 60 +21 +21 комфорт 1017.4 938.9
23 9.06 ЮЗ 4 н/о н/о +19.1 +11.3 61 +20 +20 1017.1 938.6
00 10.06 ЮЗ 2 н/о н/о +18.6 +11.2 62 +20 +20 1017.1 938.5
01 10.06 ЮЗ 3 н/о н/о +17.6 +11.4 67 +18 +18 1017.3 938.4
02 10.06 ЮЗ 4 н/о н/о +18.0 +11.5 66 +18 +18 1016.1 937.4
03 10.06 ЮЗ 2 н/о н/о +18.2 +11.5 65 +19 +19 1015.6 937.0
04 10.06 ЮЗ 2 н/о н/о +18.0 +11.6 66 +19 +19 1015.3 936.7
05 10.06 ЮЗ 3 н/о н/о +18.5 +12.2 67 +19 +19 1015.0 936.5
06 10.06 ЮЗ 3 н/о н/о +20.2 +12.7 62 +22 +22 комфорт 1014.3 936.3 +17.0 +22.8
07 10.06 Ю 1 н/о н/о +21.2 +14.1 64 +24 +24 комфорт 1013.9 936.3
08 10.06 ЮЗ 1 н/о н/о +22.8 +15.8 65 +27 +27 душно 1013.1 936.0 0.0
09 10.06 С 1 н/о н/о +22.2 +14.9 63 +26 +26 душно 1013.3 936.0 0.0
10 10.06 С 1 н/о н/о +23.3 +16.3 65 +28 +28 душно 1013.2 936.2
11 10.06 СВ 2 н/о н/о +25.3 +18.4 66 +30 +30 душно 1012.0 935.7
12 10.06 С 2 н/о н/о +25.3 +18.4 66 +30 +30 душно 1011.8 935.5 0.0
13 10.06 С 3 н/о н/о +26.7 +18.9 62 +32 +32 очень
душно
1010.8 934.9
14 10.06 С 2 н/о н/о +27.8 +19.0 59 +33 +33 очень
душно
1009.5 934.0
15 10.06 С 3 н/о н/о +27.0 +18.4 59 +32 +32 очень
душно
1008.7 933.0
16 10.06 С 1 н/о н/о +28.0 +16.9 51 +32 +32 душно 1007.6 932.2
17 10.06 ЮВ 2 н/о н/о +27.1 +15.7 50 +30 +30 душно 1007.8 932.1
18 10.06 Ю 5 н/о н/о +26.1 +14.8 50 +29 +29 жарко 1008.4 932.4 +19.5 +28.4 0.0
19 10.06 Ю 3 н/о н/о +24.9 +14.3 52 +27 +27 жарко 1009.0 932.7
20 10.06 ЮЗ 5 н/о н/о +23.7 +14.3 56 +26 +26 жарко 1009.6 932.9
21 10.06 ЮЗ 5 н/о н/о +23.7 +13.9 54 +26 +26 жарко 1009.1 932.4
22 10.06 ЮЗ 2 н/о н/о +22.8 +13.5 56 +26 +26 жарко 1010.1 933.1
23 10.06 Ю 3 н/о н/о +22.0 +13.4 58 +25 +25 комфорт 1010.2 933.0
00 11.06 ЮЗ 4 н/о н/о +21.6 +13.2 59 +24 +24 комфорт 1009.4 932.2
01 11.06 Ю 2 н/о н/о +20.8 +13.1 61 +24 +24 комфорт 1009.4 932.0
02 11.06 штиль 0 н/о н/о +21.3 +12.8 58 +24 +24 комфорт 1009.2 931.9
03 11.06 Ю 1 н/о н/о +20.3 +12.9 62 +23 +23 комфорт 1009.7 932.1
04 11.06 З 2 н/о н/о +20.5 +12.9 62 +23 +23 комфорт 1009.7 932.2
05 11.06 З 1 н/о н/о +20.9 +13.6 63 +25 +25 комфорт 1009.4 932.0
06 11.06 З 1 н/о н/о +23.1 +13.2 54 +26 +26 жарко 1009.0 932.2 +20.1 +26.3
07 11.06 С 3 н/о н/о +23.5 +17.1 67 +27 +27 душно 1009.2 932.6
08 11.06 С 2 н/о н/о +25.2 +16.6 59 +29 +29 душно 1009.3 933.1
09 11.06 С 2 н/о н/о +26.4 +18.8 63 +31 +31 душно 1008.8 933.0
10 11.06 С 2 н/о н/о +26.5 +18.4 61 +31 +31 душно 1008.8 933.0
11 11.06 Ю 2 н/о н/о +28.3 +15.9 47 +31 +31 душно 1008.0 932.6
12 11.06 ЮВ 2 н/о н/о +28.0 +12.5 38 +29 +29 жарко 1007.8 932.2
13 11.06 Ю 4 н/о н/о +29.6 +12.7 35 +31 +31 жарко 1007.0 931.9
14 11.06 ЮВ 3 н/о н/о +29.2 +13.2 37 +31 +31 жарко 1007.0 931.8
15 11.06 Ю 4 н/о н/о +28.0 +13.1 40 +30 +30 жарко 1007.7 932.2
16 11.06 Ю 3 н/о н/о +26.7 +13.1 43 +28 +28 жарко 1008.0 932.1
17 11.06 Ю 4 н/о н/о +25.8 +13.2 46 +28 +28 жарко 1008.6 932.5
18 11.06 Ю 7 н/о н/о +25.2 +13.4 48 +27 +27 жарко 1008.2 932.0 +22.2 +29.9
19 11.06 Ю 5
{15}
н/о н/о +25.3 +10.6 40 +26 +26 жарко 1008.3 932.0
20 11.06 Ю 8
{15}
н/о н/о +24.9 +8.3 35 +25 +25 комфорт 1008.9 932.4
21 11.06 ЮЗ 5
{15}
н/о н/о +24.5 +7.4 33 +25 +25 комфорт 1009.9 933.2
22 11.06 Ю 4 н/о н/о +23.9 +7.0 34 +24 +24 комфорт 1009.4 932.6
23 11.06 ЮЗ 4 н/о н/о +22.8 +7.3 37 +24 +24 комфорт 1008.5 931.5
00 12.06 ЮЗ 7
{15}
н/о н/о +22.6 +7.1 37 +23 +23 комфорт 1008.3 931.3
01 12.06 ЮЗ 7 н/о н/о +22.5 +7.1 37 +23 +23 комфорт 1007.8 930.8
02 12.06 ЮЗ 2 н/о н/о +22.7 +7.2 37 +24 +24 комфорт 1008.0 931.0
03 12.06 З 1 н/о н/о +22.5 +6.7 36 +23 +23 комфорт 1008.7 931.6
04 12.06 ЮЗ 2 н/о н/о +22.4 +7.0 37 +23 +23 комфорт 1008.7 931.6
05 12.06 ЮЗ 1 н/о н/о +21.8 +8.3 42 +23 +23 комфорт 1009.2 931.9
06 12.06 В 1
{15}
н/о н/о +22.6 +8.8 41 +24 +24 комфорт 1009.3 932.2 +21.4 +25.6
07 12.06 Ю 2 н/о н/о +23.7 +11.7 47 +25 +25 комфорт 1008.8 932.1
08 12.06 Ю 2 н/о н/о +25.8 +12.3 43 +27 +27 жарко 1008.2 932.1
09 12.06 Ю 5 н/о н/о +26.3 +11.3 39 +27 +27 жарко 1008.1 932.1
10 12.06 Ю 5 н/о н/о +27.5 +10.8 35 +28 +28 жарко 1007.7 932.0
11 12.06 Ю 4 н/о н/о +28.2 +11.1 35 +29 +29 жарко 1007.3 931.8
12 12.06 Ю 5 н/о н/о +28.9 +11.5 34 +30 +30 жарко 1006.9 931.6
13 12.06 Ю 4 н/о н/о +29.3 +11.2 33 +30 +30 жарко 1006.8 931.6
14 12.06 ЮВ 3 н/о н/о +28.9 +11.2 33 +29 +29 жарко 1006.7 931.4
15 12.06 Ю 3 н/о н/о +28.4 +11.3 35 +29 +29 жарко 1006.8 931.4
16 12.06 Ю 3 н/о н/о +27.0 +12.1 40 +28 +28 жарко 1006.9 931.2
17 12.06 Ю 4 н/о н/о +26.9 +12.7 41 +28 +28 жарко 1006.8 931.1
18 12.06 Ю 4 н/о н/о +25.8 +13.7 47 +28 +28 жарко 1007.5 931.5 +22.3 +29.6
19 12.06 ЮЗ 2 н/о н/о +24.6 +14.4 53 +27 +27 жарко 1008.5 932.1
20 12.06 ЮВ 1 н/о н/о +24.1 +14.7 56 +27 +27 жарко 1009.2 932.7
21 12.06 СВ 1 н/о н/о +21.3 +15.5 70 +25 +25 комфорт 1010.4 933.1
22 12.06 штиль 0 н/о н/о +18.5 +15.1 81 +19 +19 1011.5 933.4
23 12.06 СВ 1 н/о н/о +17.2 +14.7 85 +18 +18 1012.0 933.5
00 13.06 штиль 0 н/о н/о +16.6 +14.4 87 +16 +16 1012.1 933.4
01 13.06 З 1 н/о н/о +15.9 +13.9 88 +17 +17 1012.3 933.4
02 13.06 З 1 н/о н/о +15.4 +13.3 87 +16 +16 1012.4 933.4
03 13.06 З 1 н/о н/о +14.8 +12.6 87 +15 +15 1013.0 933.7
04 13.06 ЮЗ 1 н/о н/о +15.0 +12.9 87 +15 +15 1013.2 934.0
05 13.06 ЮЗ 1 н/о н/о +15.9 +13.1 83 +17 +17 1013.5 934.5
06 13.06 СЗ 2 н/о н/о +17.0 +13.1 78 +17 +17 1013.8 935.1 +14.7 +26.0
07 13.06 З 1 н/о н/о +17.8 +13.3 75 +19 +19 1013.8 935.3
08 13.06 СЗ 2 н/о н/о +18.9 +13.7 72 +20 +20 1013.6 935.4
09 13.06 СЗ 1 н/о н/о +20.7 +14.5 68 +25 +25 комфорт 1013.1 935.4
10 13.06 СЗ 1 н/о н/о +21.3 +14.6 66 +24 +24 комфорт 1012.8 935.3
11 13.06 С 2 н/о н/о +22.2 +15.5 66 +26 +26 душно 1012.0 934.8
12 13.06 С 3 н/о н/о +23.0 +15.8 64 +27 +27 душно 1011.5 934.5
13 13.06 С 4 н/о н/о +24.7 +17.4 64 +29 +29 душно 1010.6 934.2
14 13.06 С 4 н/о н/о +24.9 +17.6 64 +29 +29 душно 1010.1 933.8
15 13.06 С 4 н/о н/о +25.6 +18.4 64 +30 +30 душно 1009.7 933.6
16 13.06 С 4 н/о н/о +25.1 +18.6 67 +30 +30 душно 1009.7 933.5
17 13.06 С 2 н/о н/о +25.2 +19.2 69 +30 +30 душно 1009.3 933.2
18 13.06 С 1 н/о н/о +24.2 +19.1 73 +29 +29 душно 1009.5 933.1 +16.7 +25.6
19 13.06 С 1 н/о н/о +23.1 +18.9 77 +29 +29 очень
душно
1010.1 933.4
20 13.06 СЗ 2 н/о н/о +22.9 +18.7 77 +29 +29 очень
душно
1011.5 934.6
21 13.06 З 4 н/о н/о +22.5 +17.5 73 +27 +27 душно 1012.5 935.4
22 13.06 З 5 н/о н/о +21.8 +15.4 67 +25 +25 комфорт 1013.4 936.0
23 13.06 З 6 н/о н/о +21.0 +13.8 63 +24 +24 комфорт 1014.3 936.6
00 14.06 ЮЗ 3 н/о н/о +19.9 +13.5 67 +22 +22 комфорт 1015.1 937.0
01 14.06 ЮЗ 4 н/о н/о +19.8 +13.1 65 +22 +22 комфорт 1015.2 937.1
02 14.06 ЮЗ 3 н/о н/о +19.4 +12.8 66 +21 +21 комфорт 1016.1 937.8
03 14.06 ЮЗ 3 н/о н/о +19.0 +13.2 69 +20 +20 1017.0 938.5
04 14.06 ЮЗ 3 н/о н/о +18.9 +13.2 69 +20 +20 1017.4 938.9
05 14.06 З 2 н/о н/о +19.3 +12.7 66 +21 +21 комфорт 1017.8 939.3
06 14.06 З 2 н/о н/о +19.7 +13.0 65 +22 +22 комфорт 1018.4 940.0 +18.6 +24.4
07 14.06 З 2 н/о н/о +21.6 +14.5 64 +25 +25 комфорт 1018.2 940.3
08 14.06 штиль 0 н/о н/о +22.5 +15.3 64 +26 +26 жарко 1018.0 940.4
09 14.06 СВ 1 н/о н/о +24.2 +15.7 59 +27 +27 жарко 1017.4 940.3
10 14.06 СВ 2 н/о н/о +25.3 +16.6 59 +29 +29 душно 1017.1 940.3
11 14.06 С 2 н/о н/о +25.6 +16.9 59 +29 +29 душно 1016.7 940.0
12 14.06 С 3 н/о н/о +27.0 +17.7 57 +31 +31 душно 1015.7 939.5
13 14.06 С 3 н/о н/о +27.8 +18.0 55 +32 +32 душно 1015.0 939.0
14 14.06 С 3 н/о н/о +28.0 +17.5 53 +32 +32 душно 1014.4 938.5
15 14.06 С 3 н/о н/о +28.2 +17.3 52 +32 +32 душно 1013.6 937.8
16 14.06 С 2 н/о н/о +27.8 +16.9 51 +31 +31 душно 1013.3 937.4 0.0
17 14.06 СВ 1 н/о н/о +27.7 +17.9 55 +32 +32 очень
душно
1012.9 937.1
18 14.06 В 1 н/о н/о +26.6 +17.2 56 +31 +31 душно 1013.2 937.0 +19.4 +28.6 0.0
19 14.06 ЮВ 3 н/о н/о +25.9 +16.5 56 +29 +29 душно 1013.1 936.8
20 14.06 ЮЗ 3 н/о н/о +24.7 +16.3 60 +28 +28 душно 1013.6 936.9
21 14.06 ЮЗ 3 н/о н/о +24.3 +16.1 60 +28 +28 душно 1013.6 936.8
22 14.06 ЮЗ 4 н/о н/о +24.2 +14.4 54 +27 +27 жарко 1013.1 936.3
23 14.06 ЮЗ 6 н/о н/о +23.8 +13.4 52 +26 +26 жарко 1012.8 935.9
00 15.06 ЮЗ 7 н/о н/о +23.3 +12.7 51 +26 +26 жарко 1012.6 935.5
01 15.06 ЮЗ 3 н/о н/о +24.3 +11.3 44 +26 +26 жарко 1012.4 935.6
02 15.06 ЮВ 1 н/о н/о +24.3 +8.7 37 +25 +25 комфорт 1012.2 935.3
03 15.06 ЮЗ 1 н/о н/о +23.0 +9.1 41 +24 +24 комфорт 1012.1 934.9
04 15.06 ЮЗ 2 н/о н/о +22.5 +9.5 44 +24 +24 комфорт 1012.2 934.9
05 15.06 ЮЗ 3 н/о н/о +23.6 +9.5 41 +25 +25 комфорт 1011.6 934.6
06 15.06 ЮЗ 2 н/о н/о +23.9 +11.4 45 +25 +25 комфорт 1011.6 934.7 +22.4 +27.0
07 15.06 ЮЗ 3 н/о н/о +23.5 +11.7 47 +25 +25 комфорт 1011.8 934.8
08 15.06 ЮЗ 3 н/о н/о +24.0 +12.4 48 +26 +26 жарко 1011.7 934.9
09 15.06 ЮЗ 2 н/о н/о +25.8 +12.3 43 +27 +27 жарко 1011.5 935.1
10 15.06 ЮЗ 3 н/о н/о +26.2 +12.8 43 +28 +28 жарко 1010.8 934.6
11 15.06 ЮЗ 2 н/о н/о +25.5 +13.2 46 +27 +27 жарко 1011.1 934.7
12 15.06 Ю 1 н/о н/о +26.7 +12.2 41 +28 +28 жарко 1011.0 934.9
13 15.06 ЮЗ 2 н/о н/о +26.9 +12.3 40 +28 +28 жарко 1010.6 934.6
14 15.06 ЮЗ 4 н/о н/о +27.6 +13.0 41 +29 +29 жарко 1010.3 934.5
15 15.06 ЮЗ 3 н/о н/о +28.8 +10.5 32 +29 +29 жарко 1009.8 934.2
16 15.06 С 2 н/о н/о +28.8 +15.4 44 +32 +32 душно 1008.8 933.4
17 15.06 СЗ 2 н/о н/о +27.4 +12.8 40 +29 +29 жарко 1009.1 933.3
18 15.06 З 5 н/о н/о +24.8 +14.5 53 +27 +27 жарко 1010.2 933.7 +23.1 +29.9
19 15.06 З 6
{15}
н/о н/о +22.7 +13.6 56 +26 +26 жарко 1011.7 934.6
20 15.06 ЮЗ 5
{15}
н/о н/о +22.2 +13.2 57 +25 +25 комфорт 1012.6 935.3
21 15.06 ЮЗ 4
{15}
н/о н/о +21.1 +13.1 60 +23 +23 комфорт 1013.1 935.5
22 15.06 ЮЗ 1 н/о н/о +20.2 +12.9 63 +23 +23 комфорт 1013.3 935.4
23 15.06 ЮЗ 2 н/о н/о +20.1 +12.7 62 +23 +23 комфорт 1013.4 935.5 0.0
00 16.06 штиль 0
{15}
н/о н/о +19.3 +13.0 67 +20 +20 1013.6 935.5 0.0

 

Местоположение метеостанции Лилиенфельд (Австрия): широта 48.03 долгота 15.58 высота над уровнем моря 696 м.

В архиве по умолчанию представлена погода в Лилиенфельде за последнюю неделю. Архивные данные за месяц целиком и за предыдущие месяцы, начиная с января 2011 года, Вы можете получить, выбрав интересующий диапазон дат из раскрывающегося списка и нажав кнопку "Ввод!".


*Определитесь, кто Вы:
робот инопланетянин человек

Внимание! Время в таблицах - всемирное. Для получения местного времени необходимо прибавить поправку, которая равна 1 ч.

Смотрите также архив погоды в соседних городах и на ближайших метеорологических станциях:

Погода в Санкт-Пёльтене (Австрия) (19 км)
Погода в Марияхильфберге (Австрия) (29 км)
Погода в Санкт-Себастьяне (Австрия) (33 км)
Погода в Пухберг-ам-Шнеберге (Австрия) (37 км)
Погода в Раксе (Австрия) (38 км)
Погода в Яуерлинге (Австрия) (38 км)
Погода в Хоэ-Ванде (Австрия) (41 км)
Погода в Райхенау-ан-дер-Раксе (Австрия) (41 км)
Погода в Лунце (Австрия) (43 км)
Погода в Кремс-ан-дер-Донау (Австрия) (43 км)

Пояснения к столбцам:

Ветер - указаны скорость ветра в м/с - средняя за 10 мин, порывы в срок и между сроками (в фигурных скобках) и направление, откуда дует ветер: С - северный, СВ - северо-восточный, В - восточный, ЮВ - юго-восточный, Ю - южный, ЮЗ - юго-западный, З - западный, СЗ - северо-западный.
Видимость - горизонтальная дальность видимости в метрах или километрах. При видимости от 1 до 10 км при отсутствии осадков обычно наблюдается дымка, при ухудшении видимости до 1 км и менее - туман. В сухую погоду видимость может ухудшаться дымом, пылью или мглою.
Явления - указаны атмосферные явления, наблюдавшиеся в срок или в последний час перед сроком; фигурными скобками обозначены явления, наблюдавшиеся между сроками (за 1-3 часа до срока); квадратными скобками обозначены град или гололедные отложения с указанием их диаметра в мм.
Облачность - указаны через наклонную черту общая и нижняя облачность в баллах и высота нижней границы облаков в метрах; квадратными скобками обозначены формы облаков: Ci - перистые, Cs - перисто-слоистые, Cc - перисто-кучевые, Ac - высококучевые, As - высокослоистые, Sc - слоисто-кучевые, Ns - слоисто-дождевые, Cu - кучевые, Cb - кучево-дождевые. Подробнее классификацию облаков см. в Атласе облаков (PDF).
T - Температура воздуха - температура, измеренная на высоте 2 м над землей.
Td - Температура точки росы - температура, при понижении до которой содержащийся в воздухе водяной пар достигнет насыщения.
f - Относительная влажность воздуха - влажноcть воздуха, измеренная на высоте 2 м над землей.
Te - Эффективная температура - температура, которую ощущает одетый по сезону человек в тени. Характеристика душности погоды. При расчете учитывается влияние влажности воздуха и скорости ветра на теплоощущения человека.
Tes - Эффективная температура на солнце - температура, которую ощущает человек, с поправкой на солнечный нагрев. Характеристика знойности погоды. Зависит от высоты солнца над горизонтом, облачности и скорости ветра. Ночью, в пасмурную погоду, а также при ветре 12 м/с и более поправка равна нулю.
P - Атмосферное давление - приведенное к уровню моря атмосферное давление.
Po - Атмосферное давление - измеренное на уровне метеостанции атмосферное давление.
Tmin - Минимальная температура - минимум температуры воздуха на высоте 2 м над землей.
Tmax - Максимальная температура - максимум температуры воздуха на высоте 2 м над землей.
R - Количество осадков - Количество выпавших осадков за период времени, мм. При наведении курсора мыши на число - период времени, за который выпало указанное количество осадков.
R24 - Количество осадков - Количество выпавших осадков за 24 часа, мм.
S - Снежный покров - Высота снежного покрова, см. При наведении курсора мыши на число - состояние снежного покрова и степень покрытия местности в баллах.